TIME,DELAY(SENSOR),PRES,T(CTD),SAL,OXYGEN,RAWTEMP,T(OPTODE),TCPHASE,TURBIDITY,TURBIDITY_GAIN,FLUOR,BETA,CDOM,CHECK
1343913513,8891,1009.2700195312500000,5.6754999160766600,35.0451011657714840,251.0005035400390600,650.7224731445312000,5.6591911315917970,36.0354003906250000,16,3,50,88,70,15261
1343913638,8890,997.7199707031250000,5.7430000305175780,35.0434989929199200,248.9125061035156200,648.7418212890625000,5.7245578765869140,36.0998306274414060,16,3,50,90,70,15260
1343913751,8892,987.4000244140625000,5.7930002212524410,35.0443992614746100,246.1860046386718800,646.7191162109375000,5.7912712097167970,36.1967506408691400,16,3,50,88,70,15260
1343913876,8890,976.0900268554688000,5.9548997879028320,35.0551986694335940,242.8733062744140600,642.1600952148438000,5.9414620399475100,36.2765998840332000,16,3,50,88,70,15260
1343914001,8892,964.7500000000000000,6.0493998527526855,35.0559997558593750,238.7830047607422000,639.3770141601562000,6.0330390930175780,36.4325408935546900,16,3,50,88,70,15262
1343914117,8891,954.2000122070312000,6.1887998580932620,35.0671005249023440,235.7133026123047000,635.1074829101562000,6.1733589172363280,36.5106315612793000,16,3,50,87,70,15265
1343914244,8892,942.7999877929688000,6.3287000656127930,35.0769996643066400,231.6067962646484400,630.9885864257812000,6.3085517883300780,36.6495094299316400,16,3,51,86,70,15264
1343914359,8891,932.5700073242188000,6.4678997993469240,35.0881004333496100,227.8742065429687500,626.7332153320312000,6.4480319023132320,36.7694396972656250,16,3,50,84,70,15264
1343914486,8891,921.4199829101562000,6.6743001937866210,35.0933990478515600,222.0010070800781200,620.3259887695312000,6.6576862335205080,36.9710502624511700,16,3,50,87,70,15266
1343914613,8892,910.6199951171875000,6.7694997787475590,35.0976982116699200,218.0666046142578000,617.3516845703125000,6.7548680305480960,37.1362991333007800,16,3,51,86,70,15266
1343914740,8892,899.7299804687500000,6.8401999473571780,35.0971984863281250,215.4891052246093800,615.1959838867188000,6.8252449035644530,37.2428016662597660,15,3,50,88,71,15263
1343914879,8891,887.7199707031250000,6.9556999206542970,35.0990982055664060,212.5933990478515600,611.4824829101562000,6.9463710784912110,37.3406791687011700,16,3,50,88,71,15262
1343915006,8892,876.6199951171875000,7.1259999275207520,35.1022987365722660,207.8757019042968800,606.1561889648438000,7.1198577880859375,37.5202407836914060,16,3,50,88,70,15261
1343915145,8891,864.8400268554688000,7.4035000801086430,35.1249008178710940,202.7902984619140600,597.9265136718750000,7.3873667716979980,37.6747016906738300,16,3,50,88,70,15264
1343915285,8891,853.0700073242188000,7.6332998275756840,35.1347999572753900,197.9727020263672000,590.9530029296875000,7.6135230064392090,37.8434410095214840,16,3,50,86,70,15263
1343915413,8891,842.6199951171875000,7.7473001480102540,35.1371002197265600,194.0115051269531200,587.1867065429688000,7.7354760169982910,38.0253791809082000,16,3,50,86,70,15264
1343915553,8891,831.3699951171875000,7.8782000541687010,35.1436996459960940,191.2756958007812500,583.4954833984375000,7.8548679351806640,38.1334190368652340,16,3,50,86,70,15261
1343915687,8890,819.5599975585938000,8.0858001708984380,35.1400985717773440,185.2781066894531200,576.7133789062500000,8.0739021301269530,38.4056282043457000,16,3,52,88,70,15260
1343915791,8891,809.2999877929688000,8.4450998306274410,35.1692008972168000,180.5283050537109400,565.9578857421875000,8.4204044342041020,38.5337791442871100,16,3,51,86,72,15262
1343915906,8890,797.9400024414062000,8.6159000396728520,35.1814994812011700,177.7075958251953000,560.3347167968750000,8.6011524200439450,38.6276588439941400,15,3,50,86,70,15260
1343916021,8891,786.8400268554688000,8.8648004531860350,35.1957015991210940,173.9499969482422000,552.4080810546875000,8.8554744720458980,38.7514686584472660,16,3,50,87,70,15258
1343916136,8891,776.0300292968750000,9.0434999465942380,35.2074012756347660,171.3408966064453000,546.3964843750000000,9.0479946136474610,38.8329887390136700,16,3,50,87,70,15258
1343916263,8891,764.4199829101562000,9.3093996047973630,35.2280998229980500,167.6468048095703000,537.5891723632812000,9.3295059204101560,38.9487991333007800,16,3,50,86,68,15258
1343916390,8890,752.7999877929688000,9.5593004226684570,35.2546997070312500,165.2541961669922000,530.6508789062500000,9.5508308410644530,39.0057106018066400,16,3,50,86,69,15261
1343916503,8892,742.6699829101562000,9.7228002548217770,35.2706985473632800,164.1056060791015600,525.4680175781250000,9.7159099578857420,39.0024986267089840,16,3,50,85,70,15262
1343916631,8891,731.2600097656250000,9.9184999465942380,35.2913017272949200,163.4727020263672000,519.2799072265625000,9.9127330780029300,38.9444007873535160,16,3,50,86,68,15260
1343916759,8891,719.9799804687500000,10.2041997909545900,35.3195991516113300,162.6018981933593800,510.2345886230469000,10.1999101638793950,38.8553695678710940,16,3,50,86,69,15262
1343916887,8892,708.7500000000000000,10.4927997589111330,35.3526000976562500,162.6481933593750000,501.2084960937500000,10.4858703613281250,38.6996803283691400,16,3,50,86,68,15260
1343917015,8892,697.6799926757812000,10.7073001861572270,35.3792991638183600,163.1423034667968800,494.0856933593750000,10.7111196517944340,38.5429916381835940,16,3,50,84,70,15260
1343917155,8891,686.0399780273438000,10.9090995788574220,35.4057998657226560,164.3303985595703000,487.7232055664062500,10.9120302200317380,38.3465805053710940,16,3,50,85,68,15260
1343917283,8891,675.4500122070312000,11.1326999664306640,35.4323997497558600,164.9351959228515600,480.1047973632812500,11.1522302627563480,38.1742210388183600,16,3,52,84,68,15258
1343917423,8890,664.4199829101562000,11.4741001129150390,35.4861984252929700,168.4665069580078000,469.7598876953125000,11.4777803421020500,37.7429313659668000,16,3,50,84,68,15263
1343917556,8891,652.8900146484375000,11.5875997543334960,35.4824981689453100,166.0278015136718800,466.1737976074219000,11.5904703140258790,37.8632507324218750,16,3,50,84,70,15256
1343917672,8891,641.8599853515625000,11.9664001464843750,35.5322990417480500,166.9741973876953000,453.8611145019531000,11.9767999649047850,37.5910606384277340,16,3,50,85,68,15258
1343917787,8892,631.0800170898438000,12.2116003036499020,35.5708999633789060,169.4884948730468800,445.7052917480469000,12.2321996688842770,37.2744598388671900,16,3,50,84,66,15257
1343917902,8892,620.3400268554688000,12.5944004058837890,35.6212005615234400,173.9199981689453000,433.5372924804687500,12.6125402450561520,36.7602996826171900,16,3,50,84,67,15256
1343918017,8892,609.5399780273438000,12.9993000030517580,35.6796989440918000,179.2362060546875000,421.2037048339844000,12.9972400665283200,36.1936607360839840,16,3,50,84,66,15256
1343918144,8892,597.6300048828125000,13.3582000732421880,35.7352981567382800,185.2270050048828000,409.6198120117187500,13.3578500747680660,35.6081314086914060,16,3,50,86,66,15254
1343918259,8891,586.4199829101562000,13.5992002487182620,35.7719993591308600,187.6936950683593800,401.1271057128906000,13.6218204498291020,35.3136596679687500,16,3,50,86,66,15260
1343918372,8893,575.2100219726562000,13.7864999771118160,35.8011016845703100,188.8665008544922000,395.2586975097656000,13.8040304183959960,35.1471595764160160,16,3,50,84,66,15254
1343918488,8893,563.5000000000000000,14.0212001800537110,35.8398017883300800,191.5702972412109400,387.9043884277344000,14.0321598052978520,34.8603706359863300,15,3,50,84,66,15254
1343918598,8892,553.0200195312500000,14.2555999755859380,35.8782005310058600,192.8981018066406200,380.7892150878906000,14.2526702880859380,34.6675605773925800,16,3,50,86,65,15256
1343918731,8891,542.4699707031250000,14.4104003906250000,35.9037017822265600,193.4423065185547000,375.5288085937500000,14.4155502319335940,34.5530891418457000,15,3,50,86,65,15255
1343918885,8891,529.2700195312500000,14.5625000000000000,35.9283981323242200,194.2061004638672000,370.4678039550781000,14.5721702575683600,34.4286689758300800,16,3,50,84,66,15254
1343919001,8891,517.7000122070312000,14.7194995880126950,35.9547004699707000,194.7158966064453000,365.2643127441406000,14.7330904006958000,34.3182907104492200,16,3,50,84,64,15253
1343919104,8891,507.4200134277344000,14.9493999481201170,35.9922981262207000,196.5323944091797000,358.2756958007812500,14.9490604400634770,34.1007499694824200,16,3,50,84,64,15254
1343919219,8891,496.4800109863281000,15.1335000991821290,36.0257987976074200,197.7285003662109400,351.7828063964844000,15.1495704650878900,33.9308013916015600,16,3,50,87,64,15252
1343919346,8891,484.5599975585937500,15.3311004638671880,36.0572013854980500,196.0919952392578000,345.3400878906250000,15.3483896255493160,33.9343605041503900,16,3,49,87,66,15248
1343919473,8892,472.7300109863281000,15.5296001434326170,36.0923004150390600,197.5034027099609400,339.3167114257812500,15.5341501235961910,33.7584495544433600,16,3,50,86,64,15251
1343919588,8890,462.3299865722656000,15.6161003112792970,36.1114006042480500,203.4577941894531200,336.4294128417969000,15.6231603622436520,33.3621101379394500,16,3,50,86,64,15249
1343919715,8890,451.3699951171875000,15.7917003631591800,36.1430015563964840,203.8843994140625000,330.3063049316406000,15.8118400573730470,33.2469711303710940,16,3,50,86,64,15250
1343919854,8892,440.0899963378906000,16.0407009124755860,36.1879997253418000,205.4989929199218800,322.6816101074219000,16.0466499328613280,33.0422897338867200,16,3,50,86,64,15252
1343920000,8891,427.9899902343750000,16.3192996978759770,36.2402992248535160,208.1701049804687500,313.5132141113281000,16.3288097381591800,32.7569389343261700,16,3,50,88,62,15249
1343920114,8892,416.7900085449219000,16.5074996948242200,36.2764015197753900,210.5682983398437500,307.4254150390625000,16.5160503387451170,32.5348091125488300,16,3,50,85,63,15247
1343920260,8891,402.3200073242187500,16.6989002227783200,36.3125000000000000,211.0648040771484400,300.9697875976562500,16.7145309448242200,32.4144706726074200,16,3,50,86,63,15247
